Regional Weather Roundup
Issued by NWS Boston, MA

Current Version | Previous Version | Text Only | Print | Product List | Glossary Off
Versions: 1 2 3 4 5 6 7 8 9 10 11 12 13 14 15 16 17 18 19 20 21 22 23 24 25 26 27
000 ASUS41 KBOX 241310 RWRBOX REGIONAL WEATHER ROUNDUP NATIONAL WEATHER SERVICE TAUNTON MA 800 AM EST SAT FEB 24 2018 NOTE: "FAIR" INDICATES FEW OR NO CLOUDS BELOW 12,000 FEET WITH NO SIGNIFICANT WEATHER AND/OR OBSTRUCTIONS TO VISIBILITY. MAZALL-241400- EASTERN MASSACHUSETTS CITY SKY/WX TMP DP RH WIND PRES REMARKS BOSTON PTSUNNY 46 40 79 W9 30.09R BEVERLY FAIR 44 40 85 W8 30.07R LAWRENCE FAIR 44 39 82 SW10 30.09R BEDFORD FAIR 44 39 82 W8 30.08R BLUE HILL N/A N/A N/A N/A W17G26 30.07 NORWOOD FAIR 47 42 83 SW6 30.11R MARSHFIELD FAIR 45 43 93 VRB6 30.09R PLYMOUTH FAIR 49 42 77 W14 30.10R TAUNTON FAIR 46 42 86 W8 30.10R NEW BEDFORD FAIR 45 43 93 W7 30.12R $$ MAZALL-241400- CAPE COD AND THE ISLANDS CITY SKY/WX TMP DP RH WIND PRES REMARKS FALMOUTH PTSUNNY 39 39 100 SW7 30.13 HYANNIS FAIR 44 42 93 W6 30.10R CHATHAM FAIR 43 43 100 VRB5 30.10S PROVINCETOWN FAIR 43 41 93 W12 30.10R NANTUCKET FOG 39 39 100 W17 30.12R VSB 1/4 WCI 30 MARTHAS VNYRD FOG 39 39 100 W8 30.12R VSB 3/4 $$ MAZALL-241400- CENTRAL AND WESTERN MASSACHUSETTS CITY SKY/WX TMP DP RH WIND PRES REMARKS WORCESTER FAIR 41 37 86 W14G20 30.08R FITCHBURG FAIR 42 40 92 CALM 30.09R ORANGE FAIR 40 38 93 SW7 30.11R SPRINGFIELD MOSUNNY 46 37 71 NW13 30.12R WESTFIELD FAIR 46 37 71 NW14 30.13R NORTH ADAMS CLOUDY 43 34 70 W8 30.14S PITTSFIELD CLOUDY 40 35 83 VRB6 30.11S $$ RIZALL-241400- RHODE ISLAND CITY SKY/WX TMP DP RH WIND PRES REMARKS PROVIDENCE FAIR 47 41 80 W9 30.13R NEWPORT FAIR 42 41 96 W5 30.13R BLOCK ISLAND FAIR 41 40 96 W12 30.16R SMITHFIELD FAIR 44 39 82 MISG 30.11R WESTERLY FOG 41 41 100 SW5 30.15R VSB 1/4 $$ CTZALL-241400- CONNECTICUT CITY SKY/WX TMP DP RH WIND PRES REMARKS BRADLEY INTL FAIR 45 39 79 VRB3 30.14R HARTFORD FAIR 37 37 100 CALM 30.15R BRIDGEPORT FAIR 43 41 93 CALM 30.16S FOG DANBURY FAIR 38 38 100 CALM 30.17R FOG GROTON FOG 41 39 93 W7 30.15R VSB 1/2 NEW HAVEN PTSUNNY 41 40 96 CALM 30.16R FOG CHESTER FAIR 43 43 100 NW3 30.14S MERIDEN FAIR 39 39 100 CALM 30.15S FOG WILLIMANTIC FAIR 46 39 76 NW10 30.13S OXFORD FAIR 41 39 93 NW5 30.14S $$ MEZ002-015-021-024-NHZ003-005-008-011-012-014-VTZ005-008-241400- NORTHERN NEW ENGLAND CITY SKY/WX TMP DP RH WIND PRES REMARKS PORTLAND ME FAIR 35 34 96 NW3 30.02R BANGOR ME PTSUNNY 35 34 96 W5 29.97R WCI 31 CONCORD NH FAIR 44 37 76 W13 30.06R MANCHESTER NH FAIR 43 37 79 W8 30.06R NASHUA NH FAIR 39 39 100 CALM 30.08R PORTSMOUTH NH MOSUNNY 41 38 89 W7 30.04R JAFFREY NH CLOUDY 40 37 89 W3 30.07S KEENE NH FOG 34 34 100 CALM 30.10S VSB 3/4 BURLINGTON VT CLOUDY 41 32 70 W7 30.11R MT. WASHINGTON FOG 16 16 100 W82G92 N/A VSB 0 WCI -13 $$ NYZ052-076-241400- EASTERN NEW YORK CITY SKY/WX TMP DP RH WIND PRES REMARKS ALBANY PTSUNNY 42 36 79 W3 30.18R NEW YORK CITY PTSUNNY 47 41 80 NW8 30.17F $$ ANZALL-241400- MARINE OBSERVATIONS STATION/POSITION TIME TEMP WIND PRES VSBY WAVE AIR SEA DIR/SP/G HT/PER (UTC) (F) (DEG/KT/KT) (MB) (MI) (FT/S) BOSTON BUOY 1150 43 40 250/ 12/ 14 1016.8 2/ 5 BUZZARDS BAY 1200 38 250/ 17/ 18 1020.0R NANTUCKET SOUND 1150 38 39 250/ 16/ 19 1018.5 2/ 3 MASS BAY-STELLWA 1204 41 41 1016.3R 2/ 5 ISLE OF SHOALS 1200 40 240/ 18/ 19 1016.5R S OF BLOCK IS 1243 41 N/A 4/ 5 $$ ......................KEY......................... SKY/WX - SKY CONDITION/PRESENT WEATHER TMP - TEMPERATURE IN FAHRENHEIT DWPT - DEWPOINT IN FAHRENHEIT RH - RELATIVE HUMIDITY IN PERCENT WIND - DIRECTION AND SPEED IN MPH PRES - MEAN SEA LEVEL PRESSURE IN INCHES OF HG WCI - WIND CHILL INDEX VSB - VISIBILITY IN MILES HX - HEAT INDEX TC - TEMPERATURE IN CELSIUS VRB - VARIABLE WIND DIRECTION N/A - NOT AVAILABLE

USA.gov is the U.S. government's official web portal to all federal, state and local government web resources and services.